sat.trackr.live / text

‹ back to catalog

STARLINK-37818

NORAD 69333 · 2026-122E

PAYLOAD ACTIVE UNKNOWN

§ Identity

Operator
Country
US
Launch date
2026-06-03
Launch site
AFWTR
Launch vehicle
Mass (kg)
RCS (m²)

Purposes: comms

External: N2YO · Heavens-Above · Gunter

§ Orbital elements

Epoch: 2026-09-20T00:41:10.335840Z

Period
93.91 min
Inclination
97.2838°
Eccentricity
0.0003362
Mean motion
15.33454124 rev/d
Perigee alt
463.2 km
Apogee alt
467.8 km
Semi-major
6,843.7 km
B*
3.9468e-4
RAAN
291.6015°
Arg perigee
114.7155°
Mean anomaly
245.4438°
Rev number
1,672

§ Raw data

STARLINK-378181 69333U 26122E   26263.02859185  .00012694  00000+0  39468-3 0  99982 69333  97.2838 291.6015 0003362 114.7155 245.4438 15.33454124 16723

JSON: /api/v1/satellites/69333 · /tle

For live sub-satellite position, see the globe view (requires WebGL).

§ Visibility from observer

Set your observer location to see the next 7 days of passes ≥ 10°. The values pass through the URL so the page stays shareable.

No JS? Fill the form by hand. The geolocation button needs JavaScript.